When you browse on this site, cookies collect data to enhance your experience and personalize the content and advertising you see.
Visit our Privacy Policy to learn more. By continuing to use the site, you agree to this use of cookies and data.
  • In Czech Republic
  • List of Countries
  • For 7 days
  • Water Temperature
  • Satellite Maps
  • Weather Map
  • Weather Widgets
  • user-avatar
    Login

    Hourly Weather Middletown

    Today, 21 April, Sunday

    Time Temperature Precipitation Wind Pressure Humidity
    00:00 +15°C° 0 mm 2 mps 758 mmHg 90%
    01:00 +14°C° 0 mm 2 mps 758 mmHg 89%
    02:00 +14°C° 0 mm 1 mps 758 mmHg 91%
    03:00 +13°C° 0 mm 1 mps 758 mmHg 92%
    04:00 +13°C° 0 mm 1 mps 758 mmHg 93%
    05:00 +13°C° 0.1 mm 1 mps 758 mmHg 92%
    06:00 +13°C° 0.1 mm 1 mps 759 mmHg 92%
    07:00 +14°C° 0.1 mm 2 mps 759 mmHg 91%
    08:00 +15°C° 0.1 mm 2 mps 759 mmHg 88%
    09:00 +15°C° 0.1 mm 2 mps 760 mmHg 85%
    10:00 +16°C° 0.1 mm 2 mps 760 mmHg 82%
    11:00 +17°C° 0 mm 3 mps 760 mmHg 81%
    12:00 +17°C° 0 mm 3 mps 760 mmHg 79%
    13:00 +17°C° 0 mm 3 mps 760 mmHg 77%
    14:00 +18°C° 0 mm 3 mps 760 mmHg 75%
    15:00 +18°C° 0 mm 3 mps 760 mmHg 73%
    16:00 +18°C° 0 mm 3 mps 760 mmHg 70%
    17:00 +16°C° 0 mm 2 mps 760 mmHg 74%
    18:00 +15°C° 0 mm 2 mps 760 mmHg 78%
    19:00 +14°C° 0 mm 1 mps 761 mmHg 82%
    20:00 +13°C° 0 mm 1 mps 761 mmHg 82%
    21:00 +13°C° 0 mm 1 mps 761 mmHg 83%
    22:00 +12°C° 0 mm 1 mps 761 mmHg 83%
    23:00 +11°C° 0 mm 1 mps 761 mmHg 84%

    Tomorrow, 22 April, Monday

    Time Temperature Precipitation Wind Pressure Humidity
    00:00 +10°C° 0 mm 0 mps 761 mmHg 84%
    01:00 +9°C° 0 mm 0 mps 761 mmHg 84%
    02:00 +9°C° 0 mm 0 mps 761 mmHg 84%
    03:00 +9°C° 0 mm 0 mps 761 mmHg 84%
    04:00 +9°C° 0 mm 0 mps 761 mmHg 84%
    05:00 +10°C° 0 mm 0 mps 761 mmHg 80%
    06:00 +11°C° 0 mm 0 mps 761 mmHg 76%
    07:00 +13°C° 0 mm 0 mps 762 mmHg 71%
    08:00 +15°C° 0 mm 0 mps 761 mmHg 66%
    09:00 +17°C° 0 mm 0 mps 761 mmHg 61%
    10:00 +21°C° 0 mm 1 mps 761 mmHg 55%
    11:00 +22°C° 0 mm 1 mps 761 mmHg 52%
    12:00 +23°C° 0 mm 1 mps 760 mmHg 48%
    13:00 +24°C° 0 mm 2 mps 760 mmHg 45%
    14:00 +23°C° 0.2 mm 2 mps 760 mmHg 53%
    15:00 +20°C° 0.2 mm 2 mps 759 mmHg 62%
    16:00 +18°C° 0.2 mm 2 mps 759 mmHg 71%
    17:00 +17°C° 0.3 mm 2 mps 759 mmHg 76%
    18:00 +16°C° 0.3 mm 1 mps 759 mmHg 82%
    19:00 +15°C° 0.3 mm 1 mps 760 mmHg 87%
    20:00 +15°C° 0.1 mm 1 mps 760 mmHg 88%
    21:00 +14°C° 0.1 mm 1 mps 760 mmHg 89%
    22:00 +14°C° 0.1 mm 1 mps 760 mmHg 91%
    23:00 +14°C° 0.1 mm 1 mps 760 mmHg 91%

    Day after tomorrow, 23 April, Tuesday

    Time Temperature Precipitation Wind Pressure Humidity
    00:00 +14°C° 0.1 mm 1 mps 760 mmHg 92%
    01:00 +14°C° 0.1 mm 1 mps 760 mmHg 92%
    02:00 +13°C° 0 mm 1 mps 760 mmHg 93%
    03:00 +13°C° 0 mm 1 mps 760 mmHg 94%
    04:00 +13°C° 0 mm 1 mps 760 mmHg 95%
    05:00 +13°C° 0 mm 1 mps 760 mmHg 93%
    06:00 +14°C° 0 mm 2 mps 760 mmHg 90%
    07:00 +15°C° 0 mm 2 mps 761 mmHg 88%
    08:00 +16°C° 0 mm 2 mps 761 mmHg 81%
    09:00 +19°C° 0 mm 1 mps 761 mmHg 74%
    10:00 +20°C° 0 mm 1 mps 760 mmHg 66%
    11:00 +22°C° 0 mm 1 mps 760 mmHg 60%
    12:00 +24°C° 0 mm 1 mps 760 mmHg 54%
    13:00 +26°C° 0 mm 1 mps 759 mmHg 48%
    14:00 +25°C° 0 mm 1 mps 759 mmHg 50%
    15:00 +24°C° 0 mm 2 mps 758 mmHg 51%
    16:00 +24°C° 0 mm 3 mps 758 mmHg 53%
    17:00 +21°C° 0 mm 3 mps 758 mmHg 61%
    18:00 +18°C° 0 mm 3 mps 757 mmHg 68%
    19:00 +16°C° 0 mm 3 mps 757 mmHg 76%
    20:00 +14°C° 0 mm 3 mps 757 mmHg 79%
    21:00 +14°C° 0 mm 3 mps 757 mmHg 81%
    22:00 +13°C° 0 mm 3 mps 757 mmHg 84%
    23:00 +13°C° 0.1 mm 3 mps 756 mmHg 84%

    24 April, Wednesday

    Time Temperature Precipitation Wind Pressure Humidity
    00:00 +13°C° 0.1 mm 3 mps 755 mmHg 84%
    01:00 +14°C° 0.1 mm 3 mps 755 mmHg 84%
    02:00 +14°C° 1.1 mm 3 mps 754 mmHg 86%
    03:00 +14°C° 1.1 mm 3 mps 753 mmHg 87%
    04:00 +14°C° 1.1 mm 3 mps 752 mmHg 89%
    05:00 +16°C° 0 mm 3 mps 753 mmHg 87%
    06:00 +17°C° 0 mm 4 mps 753 mmHg 85%
    07:00 +18°C° 0 mm 4 mps 753 mmHg 83%
    08:00 +18°C° 0 mm 4 mps 753 mmHg 74%
    09:00 +18°C° 0 mm 4 mps 753 mmHg 64%
    10:00 +19°C° 0 mm 4 mps 754 mmHg 55%
    11:00 +19°C° 0 mm 4 mps 754 mmHg 51%
    12:00 +19°C° 0 mm 4 mps 754 mmHg 47%
    13:00 +20°C° 0 mm 4 mps 754 mmHg 43%
    14:00 +19°C° 0 mm 5 mps 754 mmHg 43%
    15:00 +19°C° 0 mm 5 mps 754 mmHg 44%
    16:00 +19°C° 0 mm 5 mps 754 mmHg 44%
    17:00 +15°C° 0 mm 5 mps 755 mmHg 49%
    18:00 +13°C° 0 mm 4 mps 756 mmHg 55%
    19:00 +11°C° 0 mm 3 mps 756 mmHg 60%
    20:00 +11°C° 0 mm 3 mps 757 mmHg 62%
    21:00 +10°C° 0 mm 3 mps 757 mmHg 64%
    22:00 +9°C° 0 mm 3 mps 757 mmHg 66%
    23:00 +9°C° 0 mm 3 mps 758 mmHg 67%

    25 April, Thursday

    Time Temperature Precipitation Wind Pressure Humidity
    00:00 +8°C° 0 mm 3 mps 758 mmHg 68%
    01:00 +8°C° 0 mm 3 mps 758 mmHg 69%
    02:00 +7°C° 0 mm 3 mps 758 mmHg 68%
    03:00 +7°C° 0 mm 3 mps 758 mmHg 68%
    04:00 +7°C° 0 mm 3 mps 758 mmHg 68%
    05:00 +7°C° 0 mm 3 mps 759 mmHg 64%
    06:00 +8°C° 0 mm 3 mps 759 mmHg 60%
    07:00 +9°C° 0 mm 3 mps 760 mmHg 57%
    08:00 +11°C° 0 mm 3 mps 760 mmHg 52%
    09:00 +13°C° 0 mm 3 mps 760 mmHg 47%
    10:00 +15°C° 0 mm 2 mps 760 mmHg 42%
    11:00 +17°C° 0 mm 2 mps 760 mmHg 40%
    12:00 +18°C° 0 mm 2 mps 759 mmHg 37%
    13:00 +19°C° 0 mm 2 mps 759 mmHg 35%
    14:00 +19°C° 0 mm 2 mps 759 mmHg 37%
    15:00 +19°C° 0 mm 2 mps 759 mmHg 39%
    16:00 +19°C° 0 mm 1 mps 759 mmHg 41%
    17:00 +18°C° 0 mm 1 mps 759 mmHg 47%
    18:00 +15°C° 0 mm 1 mps 760 mmHg 53%
    19:00 +14°C° 0 mm 1 mps 760 mmHg 58%
    20:00 +13°C° 0 mm 1 mps 760 mmHg 63%
    21:00 +11°C° 0 mm 1 mps 761 mmHg 67%
    22:00 +10°C° 0 mm 1 mps 761 mmHg 72%
    23:00 +10°C° 0 mm 1 mps 761 mmHg 74%

    26 April, Friday

    Time Temperature Precipitation Wind Pressure Humidity
    00:00 +9°C° 0 mm 1 mps 761 mmHg 77%
    01:00 +9°C° 0 mm 1 mps 761 mmHg 79%
    02:00 +8°C° 0 mm 1 mps 761 mmHg 82%
    03:00 +8°C° 0 mm 1 mps 761 mmHg 84%
    04:00 +7°C° 0 mm 2 mps 761 mmHg 87%
    05:00 +8°C° 0 mm 2 mps 761 mmHg 84%
    06:00 +9°C° 0 mm 3 mps 761 mmHg 81%
    07:00 +10°C° 0 mm 3 mps 761 mmHg 79%
    08:00 +9°C° 0.8 mm 3 mps 760 mmHg 81%
    09:00 +9°C° 0.8 mm 3 mps 760 mmHg 84%
    10:00 +8°C° 0.8 mm 4 mps 760 mmHg 87%
    11:00 +8°C° 2.2 mm 4 mps 760 mmHg 89%
    12:00 +7°C° 2.2 mm 4 mps 759 mmHg 91%
    13:00 +7°C° 2.2 mm 4 mps 759 mmHg 92%
    14:00 +7°C° 2.3 mm 4 mps 758 mmHg 93%
    15:00 +7°C° 2.3 mm 4 mps 758 mmHg 93%
    16:00 +7°C° 2.3 mm 3 mps 758 mmHg 94%
    17:00 +7°C° 1.1 mm 3 mps 758 mmHg 94%
    18:00 +7°C° 1.1 mm 3 mps 758 mmHg 94%
    19:00 +7°C° 1.1 mm 2 mps 758 mmHg 94%
    20:00 +7°C° 0.2 mm 2 mps 758 mmHg 93%
    21:00 +7°C° 0.2 mm 2 mps 759 mmHg 93%
    22:00 +7°C° 0.2 mm 2 mps 759 mmHg 93%
    23:00 +7°C° 0 mm 1 mps 759 mmHg 93%
    Show more